QPF
0.00 0.00 0.00 0.00 0.00 0.00 0.00 0.00 0.00 0.00 0.00 0.00 0.00 0.00 0.00 0.00 0.00 0.00 0.00 0.00 0.01 0.01 0.01 0.01 0.01 0.01 0.01 0.01 0.00 0.00 0.01 0.01 0.02 0.02 0.02 0.02 0.01 0.01 0.01 0.01 0.02 0.02 0.02 0.01
0.00 0.00 0.00 0.00 0.00 0.00 0.00 0.00 0.00 0.00 0.00 0.00 0.00 0.00 0.00 0.00 0.00 0.00 0.00 0.00 0.01 0.01 0.01 0.01 0.01 0.01 0.00 0.01 0.00 0.00 0.01 0.02 0.03 0.04 0.04 0.03 0.02 0.01 0.01 0.01 0.01 0.02 0.02 0.02
0.00 0.00 0.00 0.00 0.00 0.00 0.00 0.00 0.00 0.00 0.00 0.00 0.00 0.00 0.00 0.00 0.00 0.00 0.01 0.00 0.01 0.01 0.02 0.02 0.02 0.02 0.01 0.01 0.01 0.01 0.01 0.02 0.03 0.05 0.05 0.03 0.02 0.02 0.02 0.01 0.01 0.02 0.02 0.02
0.00 0.00 0.00 0.00 0.00 0.00 0.00 0.00 0.00 0.00 0.00 0.00 0.00 0.00 0.00 0.00 0.00 0.01 0.01 0.00 0.01 0.02 0.02 0.04 0.04 0.05 0.04 0.02 0.01 0.01 0.02 0.02 0.03 0.04 0.06 0.05 0.03 0.02 0.01 0.01 0.01 0.01 0.03 0.02
0.01 0.00 0.00 0.00 0.00 0.00 0.00 0.00 0.00 0.00 0.00 0.00 0.00 0.00 0.00 0.00 0.00 0.00 0.00 0.00 0.01 0.01 0.03 0.06 0.08 0.08 0.07 0.05 0.02 0.02 0.02 0.02 0.02 0.02 0.04 0.04 0.04 0.03 0.02 0.01 0.01 0.01 0.01 0.02
0.01 0.01 0.00 0.00 0.00 0.00 0.00 0.00 0.00 0.00 0.00 0.00 0.00 0.00 0.00 0.00 0.00 0.00 0.00 0.00 0.01 0.01 0.02 0.06 0.09 0.08 0.08 0.08 0.05 0.03 0.02 0.02 0.02 0.02 0.02 0.03 0.04 0.03 0.02 0.02 0.02 0.02 0.01 0.01
0.00 0.00 0.00 0.00 0.00 0.00 0.00 0.00 0.00 0.00 0.00 0.00 0.00 0.00 0.00 0.00 0.00 0.00 0.01 0.01 0.01 0.01 0.01 0.04 0.05 0.05 0.05 0.06 0.05 0.05 0.04 0.03 0.02 0.02 0.02 0.02 0.03 0.04 0.04 0.03 0.03 0.03 0.02 0.01
0.01 0.01 0.01 0.00 0.00 0.01 0.01 0.00 0.00 0.00 0.00 0.00 0.00 0.00 0.00 0.00 0.00 0.00 0.01 0.01 0.01 0.01 0.01 0.01 0.02 0.03 0.03 0.03 0.05 0.06 0.04 0.03 0.03 0.03 0.03 0.02 0.03 0.04 0.04 0.03 0.03 0.03 0.02 0.02
0.01 0.01 0.01 0.00 0.00 0.00 0.00 0.00 0.00 0.00 0.00 0.00 0.00 0.00 0.00 0.00 0.00 0.00 0.01 0.01 0.01 0.01 0.01 0.01 0.02 0.02 0.04 0.05 0.07 0.05 0.03 0.02 0.02 0.03 0.03 0.03 0.02 0.04 0.05 0.05 0.03 0.03 0.02 0.02
0.01 0.00 0.00 0.00 0.00 0.00 0.00 0.00 0.00 0.00 0.00 0.00 0.00 0.00 0.00 0.00 0.00 0.00 0.00 0.01 0.01 0.01 0.01 0.01 0.02 0.04 0.07 0.08 0.06 0.03 0.03 0.02 0.02 0.03 0.03 0.02 0.02 0.02 0.03 0.05 0.04 0.03 0.03 0.03
0.02 0.01 0.01 0.01 0.00 0.00 0.00 0.00 0.00 0.00 0.01 0.01 0.01 0.01 0.00 0.00 0.00 0.00 0.00 0.00 0.01 0.01 0.01 0.01 0.02 0.04 0.09 0.06 0.05 0.05 0.04 0.04 0.03 0.02 0.02 0.02 0.01 0.01 0.01 0.02 0.03 0.03 0.03 0.02
0.03 0.02 0.02 0.01 0.01 0.00 0.00 0.00 0.00 0.01 0.01 0.01 0.01 0.01 0.01 0.01 0.00 0.00 0.00 0.01 0.01 0.01 0.01 0.01 0.02 0.03 0.04 0.05 0.06 0.06 0.04 0.04 0.03 0.02 0.02 0.01 0.01 0.01 0.01 0.01 0.01 0.02 0.03 0.03
0.01 0.01 0.01 0.01 0.01 0.01 0.01 0.01 0.01 0.01 0.01 0.01 0.01 0.01 0.01 0.01 0.00 0.00 0.01 0.01 0.01 0.01 0.01 0.01 0.01 0.01 0.02 0.03 0.04 0.06 0.07 0.04 0.02 0.02 0.01 0.01 0.01 0.01 0.01 0.01 0.01 0.01 0.02 0.03
0.01 0.01 0.01 0.01 0.01 0.01 0.01 0.01 0.01 0.01 0.01 0.01 0.01 0.01 0.01 0.01 0.01 0.01 0.02 0.01 0.01 0.01 0.02 0.02 0.01 0.01 0.02 0.01 0.02 0.04 0.06 0.05 0.02 0.01 0.02 0.01 0.01 0.01 0.01 0.01 0.01 0.01 0.01 0.02
0.01 0.01 0.01 0.01 0.01 0.01 0.01 0.01 0.01 0.01 0.01 0.01 0.01 0.01 0.02 0.02 0.02 0.01 0.02 0.02 0.01 0.01 0.02 0.02 0.01 0.01 0.01 0.01 0.02 0.02 0.03 0.03 0.02 0.01 0.01 0.01 0.01 0.01 0.01 0.01 0.01 0.01 0.02 0.02
0.01 0.01 0.01 0.01 0.01 0.01 0.01 0.01 0.01 0.01 0.01 0.01 0.01 0.01 0.01 0.01 0.01 0.01 0.02 0.02 0.01 0.01 0.02 0.02 0.02 0.01 0.01 0.01 0.01 0.02 0.02 0.02 0.02 0.02 0.01 0.01 0.01 0.01 0.01 0.01 0.01 0.01 0.02 0.02
0.01 0.01 0.01 0.01 0.01 0.01 0.01 0.02 0.02 0.02 0.01 0.01 0.01 0.02 0.02 0.02 0.01 0.01 0.02 0.02 0.01 0.01 0.02 0.02 0.02 0.01 0.01 0.01 0.01 0.01 0.01 0.02 0.02 0.02 0.02 0.02 0.02 0.01 0.01 0.02 0.02 0.01 0.02 0.02
0.01 0.01 0.01 0.02 0.02 0.03 0.03 0.03 0.02 0.02 0.01 0.01 0.01 0.01 0.02 0.02 0.01 0.01 0.02 0.02 0.01 0.01 0.02 0.02 0.02 0.02 0.01 0.01 0.01 0.01 0.01 0.01 0.02 0.02 0.02 0.02 0.02 0.01 0.01 0.02 0.02 0.01 0.01 0.02
0.00 0.01 0.01 0.02 0.02 0.03 0.03 0.03 0.02 0.02 0.01 0.01 0.02 0.02 0.02 0.01 0.01 0.01 0.01 0.01 0.01 0.02 0.02 0.02 0.02 0.02 0.01 0.01 0.02 0.01 0.01 0.01 0.02 0.02 0.02 0.02 0.02 0.01 0.01 0.01 0.02 0.02 0.02 0.02
0.00 0.01 0.02 0.02 0.03 0.03 0.04 0.03 0.02 0.02 0.01 0.01 0.02 0.02 0.02 0.01 0.01 0.01 0.02 0.01 0.02 0.02 0.02 0.02 0.02 0.02 0.02 0.01 0.01 0.01 0.01 0.02 0.02 0.02 0.02 0.02 0.02 0.01 0.01 0.01 0.01 0.01 0.01 0.02
0.01 0.01 0.02 0.03 0.05 0.05 0.05 0.04 0.04 0.03 0.02 0.02 0.02 0.03 0.02 0.02 0.01 0.02 0.02 0.02 0.03 0.03 0.02 0.02 0.02 0.02 0.02 0.02 0.01 0.01 0.01 0.01 0.01 0.01 0.01 0.01 0.01 0.01 0.01 0.01 0.01 0.01 0.02 0.02
0.01 0.02 0.03 0.04 0.06 0.06 0.05 0.05 0.06 0.06 0.04 0.04 0.03 0.03 0.03 0.03 0.03 0.03 0.03 0.03 0.03 0.03 0.03 0.02 0.02 0.02 0.02 0.02 0.01 0.01 0.01 0.01 0.01 0.01 0.01 0.01 0.01 0.01 0.01 0.01 0.01 0.01 0.02 0.02
0.01 0.02 0.04 0.05 0.07 0.07 0.05 0.05 0.05 0.04 0.04 0.05 0.05 0.04 0.04 0.04 0.04 0.04 0.04 0.04 0.04 0.04 0.03 0.03 0.03 0.02 0.02 0.02 0.02 0.02 0.01 0.01 0.01 0.01 0.01 0.01 0.01 0.01 0.01 0.01 0.01 0.01 0.01 0.01
0.02 0.04 0.05 0.07 0.08 0.07 0.05 0.04 0.04 0.03 0.03 0.05 0.05 0.04 0.05 0.05 0.05 0.04 0.03 0.04 0.05 0.04 0.03 0.03 0.03 0.03 0.03 0.02 0.02 0.02 0.02 0.02 0.02 0.01 0.01 0.01 0.01 0.01 0.01 0.01 0.01 0.01 0.01 0.01
0.03 0.03 0.05 0.07 0.08 0.08 0.08 0.06 0.05 0.04 0.04 0.05 0.05 0.05 0.05 0.06 0.06 0.04 0.03 0.03 0.04 0.04 0.03 0.03 0.04 0.04 0.03 0.03 0.02 0.02 0.02 0.02 0.02 0.02 0.02 0.02 0.02 0.01 0.01 0.01 0.01 0.01 0.01 0.01
0.04 0.04 0.05 0.06 0.08 0.08 0.09 0.08 0.07 0.06 0.06 0.06 0.06 0.05 0.05 0.06 0.06 0.04 0.03 0.02 0.02 0.03 0.03 0.03 0.04 0.04 0.03 0.03 0.03 0.02 0.02 0.02 0.02 0.02 0.02 0.02 0.02 0.01 0.01 0.01 0.01 0.01 0.01 0.01
0.02 0.04 0.05 0.05 0.06 0.07 0.08 0.08 0.09 0.09 0.09 0.07 0.06 0.06 0.05 0.05 0.05 0.03 0.03 0.03 0.02 0.02 0.03 0.03 0.04 0.04 0.03 0.03 0.03 0.03 0.02 0.02 0.02 0.02 0.02 0.02 0.02 0.02 0.02 0.02 0.02 0.02 0.01 0.01
MSLP
1013.38 1013.43 1013.50 1013.59 1013.67 1013.75 1013.82 1013.90 1014.01 1014.15 1014.36 1014.62 1014.94 1015.30 1015.68 1016.06 1016.41 1016.70 1016.92 1017.06 1017.14 1017.17 1017.20 1017.23 1017.31 1017.45 1017.65 1017.91 1018.20 1018.51 1018.79 1019.02 1019.19 1019.28 1019.30 1019.27 1019.21 1019.14 1019.09 1019.07 1019.08 1019.12 1019.17 1019.22
1013.59 1013.48 1013.38 1013.28 1013.20 1013.12 1013.09 1013.11 1013.19 1013.36 1013.62 1013.96 1014.37 1014.82 1015.28 1015.72 1016.11 1016.42 1016.65 1016.80 1016.89 1016.94 1016.98 1017.05 1017.16 1017.33 1017.56 1017.85 1018.17 1018.49 1018.79 1019.04 1019.24 1019.36 1019.44 1019.46 1019.47 1019.47 1019.48 1019.51 1019.56 1019.62 1019.68 1019.72
1013.67 1013.43 1013.18 1012.92 1012.68 1012.48 1012.35 1012.31 1012.38 1012.57 1012.88 1013.29 1013.77 1014.30 1014.83 1015.33 1015.77 1016.12 1016.39 1016.57 1016.68 1016.76 1016.83 1016.92 1017.05 1017.24 1017.48 1017.77 1018.08 1018.39 1018.68 1018.94 1019.14 1019.30 1019.42 1019.51 1019.58 1019.66 1019.74 1019.84 1019.94 1020.03 1020.12 1020.16
1013.53 1013.17 1012.79 1012.41 1012.05 1011.76 1011.57 1011.50 1011.57 1011.78 1012.13 1012.60 1013.15 1013.75 1014.35 1014.92 1015.41 1015.82 1016.14 1016.37 1016.53 1016.65 1016.75 1016.86 1017.01 1017.20 1017.42 1017.68 1017.96 1018.24 1018.50 1018.74 1018.94 1019.12 1019.28 1019.43 1019.57 1019.72 1019.89 1020.05 1020.21 1020.36 1020.47 1020.54
1013.08 1012.64 1012.17 1011.70 1011.28 1010.95 1010.73 1010.65 1010.73 1010.98 1011.37 1011.90 1012.52 1013.18 1013.85 1014.49 1015.06 1015.54 1015.93 1016.22 1016.44 1016.61 1016.75 1016.89 1017.03 1017.20 1017.40 1017.61 1017.84 1018.07 1018.29 1018.50 1018.70 1018.90 1019.10 1019.30 1019.52 1019.75 1019.99 1020.22 1020.45 1020.64 1020.80 1020.90
1012.31 1011.81 1011.29 1010.79 1010.35 1010.01 1009.81 1009.76 1009.88 1010.18 1010.63 1011.21 1011.90 1012.63 1013.38 1014.09 1014.74 1015.30 1015.76 1016.13 1016.42 1016.64 1016.82 1016.97 1017.11 1017.26 1017.41 1017.58 1017.75 1017.93 1018.11 1018.30 1018.50 1018.72 1018.96 1019.22 1019.51 1019.82 1020.14 1020.45 1020.73 1020.98 1021.17 1021.31
1011.26 1010.72 1010.19 1009.70 1009.29 1008.99 1008.84 1008.86 1009.04 1009.41 1009.93 1010.58 1011.34 1012.14 1012.96 1013.75 1014.48 1015.12 1015.66 1016.11 1016.46 1016.73 1016.93 1017.10 1017.23 1017.35 1017.47 1017.58 1017.71 1017.85 1018.01 1018.20 1018.42 1018.67 1018.96 1019.30 1019.66 1020.04 1020.44 1020.81 1021.16 1021.45 1021.68 1021.85
1010.04 1009.49 1008.97 1008.52 1008.17 1007.95 1007.89 1007.99 1008.27 1008.71 1009.32 1010.04 1010.87 1011.75 1012.64 1013.51 1014.31 1015.02 1015.64 1016.14 1016.54 1016.85 1017.08 1017.24 1017.37 1017.46 1017.55 1017.63 1017.74 1017.86 1018.03 1018.24 1018.49 1018.80 1019.17 1019.58 1020.02 1020.49 1020.95 1021.39 1021.79 1022.12 1022.38 1022.57
1008.80 1008.24 1007.76 1007.37 1007.11 1006.99 1007.03 1007.23 1007.61 1008.15 1008.84 1009.65 1010.54 1011.49 1012.45 1013.38 1014.24 1015.02 1015.68 1016.24 1016.67 1017.00 1017.23 1017.40 1017.50 1017.58 1017.65 1017.73 1017.83 1017.97 1018.17 1018.43 1018.75 1019.14 1019.59 1020.09 1020.62 1021.16 1021.69 1022.18 1022.62 1022.99 1023.27 1023.47
1007.68 1007.14 1006.70 1006.39 1006.21 1006.20 1006.34 1006.65 1007.12 1007.76 1008.52 1009.40 1010.37 1011.37 1012.39 1013.37 1014.28 1015.09 1015.80 1016.37 1016.82 1017.16 1017.39 1017.54 1017.64 1017.71 1017.78 1017.86 1017.99 1018.18 1018.44 1018.77 1019.18 1019.67 1020.21 1020.80 1021.41 1022.02 1022.61 1023.15 1023.62 1024.01 1024.31 1024.51
1006.80 1006.30 1005.91 1005.67 1005.58 1005.65 1005.89 1006.29 1006.84 1007.55 1008.38 1009.32 1010.34 1011.39 1012.44 1013.45 1014.40 1015.24 1015.96 1016.54 1016.99 1017.32 1017.55 1017.69 1017.78 1017.85 1017.93 1018.05 1018.22 1018.48 1018.81 1019.23 1019.74 1020.32 1020.95 1021.63 1022.31 1022.98 1023.61 1024.19 1024.68 1025.08 1025.39 1025.60
1006.24 1005.77 1005.44 1005.26 1005.24 1005.39 1005.69 1006.15 1006.76 1007.52 1008.39 1009.37 1010.41 1011.49 1012.57 1013.60 1014.56 1015.42 1016.14 1016.73 1017.18 1017.50 1017.72 1017.86 1017.96 1018.04 1018.14 1018.30 1018.53 1018.85 1019.27 1019.78 1020.37 1021.04 1021.75 1022.49 1023.22 1023.93 1024.59 1025.18 1025.69 1026.10 1026.40 1026.62
1005.94 1005.53 1005.26 1005.14 1005.17 1005.36 1005.71 1006.20 1006.84 1007.61 1008.50 1009.49 1010.55 1011.64 1012.72 1013.77 1014.74 1015.60 1016.33 1016.92 1017.38 1017.70 1017.92 1018.07 1018.18 1018.29 1018.43 1018.63 1018.92 1019.30 1019.79 1020.36 1021.03 1021.75 1022.52 1023.29 1024.06 1024.78 1025.45 1026.04 1026.54 1026.95 1027.26 1027.48
1005.83 1005.48 1005.27 1005.20 1005.28 1005.49 1005.85 1006.35 1006.99 1007.76 1008.64 1009.62 1010.68 1011.76 1012.86 1013.91 1014.88 1015.76 1016.51 1017.11 1017.58 1017.92 1018.16 1018.34 1018.48 1018.62 1018.80 1019.04 1019.38 1019.81 1020.35 1020.97 1021.67 1022.42 1023.21 1023.99 1024.75 1025.46 1026.12 1026.69 1027.18 1027.59 1027.90 1028.12
1005.76 1005.49 1005.35 1005.33 1005.44 1005.67 1006.04 1006.52 1007.15 1007.89 1008.75 1009.71 1010.75 1011.84 1012.92 1013.98 1014.98 1015.87 1016.65 1017.28 1017.79 1018.17 1018.45 1018.66 1018.84 1019.03 1019.25 1019.54 1019.91 1020.38 1020.94 1021.58 1022.28 1023.03 1023.80 1024.56 1025.29 1025.97 1026.59 1027.14 1027.61 1028.00 1028.32 1028.56
1005.60 1005.43 1005.37 1005.40 1005.54 1005.79 1006.15 1006.63 1007.23 1007.95 1008.78 1009.72 1010.75 1011.82 1012.91 1013.98 1015.00 1015.92 1016.74 1017.43 1017.98 1018.42 1018.76 1019.03 1019.27 1019.51 1019.77 1020.10 1020.49 1020.97 1021.53 1022.16 1022.85 1023.56 1024.29 1025.00 1025.69 1026.32 1026.90 1027.42 1027.87 1028.25 1028.57 1028.82
1005.26 1005.20 1005.21 1005.31 1005.49 1005.77 1006.14 1006.61 1007.20 1007.90 1008.71 1009.63 1010.64 1011.71 1012.81 1013.90 1014.94 1015.91 1016.77 1017.52 1018.14 1018.65 1019.07 1019.41 1019.71 1020.00 1020.32 1020.67 1021.09 1021.57 1022.12 1022.72 1023.36 1024.03 1024.70 1025.36 1025.99 1026.57 1027.11 1027.60 1028.02 1028.40 1028.72 1029.00
1004.71 1004.74 1004.84 1005.01 1005.24 1005.55 1005.95 1006.43 1007.02 1007.72 1008.53 1009.45 1010.45 1011.52 1012.63 1013.73 1014.81 1015.82 1016.74 1017.55 1018.24 1018.83 1019.33 1019.75 1020.12 1020.48 1020.84 1021.22 1021.65 1022.13 1022.65 1023.22 1023.82 1024.43 1025.05 1025.65 1026.23 1026.77 1027.27 1027.73 1028.15 1028.52 1028.85 1029.14
1003.97 1004.08 1004.25 1004.49 1004.78 1005.14 1005.58 1006.10 1006.72 1007.44 1008.26 1009.18 1010.19 1011.27 1012.38 1013.51 1014.60 1015.65 1016.62 1017.49 1018.26 1018.92 1019.50 1020.00 1020.44 1020.86 1021.27 1021.69 1022.13 1022.61 1023.12 1023.65 1024.21 1024.78 1025.35 1025.91 1026.45 1026.96 1027.44 1027.88 1028.29 1028.67 1029.01 1029.31
1003.11 1003.27 1003.50 1003.79 1004.15 1004.57 1005.07 1005.64 1006.31 1007.06 1007.91 1008.86 1009.88 1010.97 1012.09 1013.23 1014.35 1015.42 1016.42 1017.35 1018.17 1018.91 1019.55 1020.13 1020.64 1021.12 1021.58 1022.04 1022.50 1022.98 1023.48 1024.00 1024.53 1025.08 1025.61 1026.15 1026.66 1027.16 1027.62 1028.07 1028.48 1028.86 1029.20 1029.52
1002.21 1002.39 1002.65 1002.99 1003.40 1003.89 1004.45 1005.09 1005.81 1006.62 1007.52 1008.50 1009.54 1010.64 1011.77 1012.91 1014.03 1015.12 1016.15 1017.11 1017.98 1018.77 1019.48 1020.12 1020.71 1021.25 1021.76 1022.25 1022.74 1023.24 1023.74 1024.26 1024.78 1025.30 1025.83 1026.35 1026.86 1027.35 1027.82 1028.27 1028.69 1029.07 1029.43 1029.75
1001.33 1001.49 1001.76 1002.12 1002.58 1003.13 1003.76 1004.47 1005.27 1006.14 1007.09 1008.11 1009.18 1010.29 1011.42 1012.56 1013.68 1014.77 1015.81 1016.79 1017.70 1018.53 1019.30 1020.00 1020.64 1021.24 1021.81 1022.35 1022.87 1023.39 1023.90 1024.42 1024.94 1025.46 1025.99 1026.51 1027.01 1027.51 1027.99 1028.45 1028.88 1029.27 1029.63 1029.95
1000.47 1000.60 1000.85 1001.23 1001.72 1002.33 1003.03 1003.82 1004.69 1005.63 1006.64 1007.69 1008.79 1009.91 1011.04 1012.18 1013.29 1014.37 1015.41 1016.40 1017.34 1018.21 1019.02 1019.78 1020.48 1021.14 1021.76 1022.34 1022.90 1023.45 1023.98 1024.51 1025.03 1025.55 1026.08 1026.60 1027.11 1027.61 1028.10 1028.57 1029.00 1029.41 1029.76 1030.08
999.64 999.71 999.94 1000.33 1000.85 1001.51 1002.27 1003.14 1004.08 1005.09 1006.16 1007.26 1008.38 1009.51 1010.65 1011.77 1012.87 1013.94 1014.98 1015.98 1016.93 1017.84 1018.69 1019.50 1020.26 1020.97 1021.64 1022.27 1022.87 1023.44 1023.99 1024.52 1025.05 1025.57 1026.09 1026.60 1027.12 1027.62 1028.12 1028.59 1029.03 1029.43 1029.79 1030.09
998.77 998.80 999.02 999.41 999.97 1000.68 1001.51 1002.44 1003.46 1004.54 1005.66 1006.80 1007.95 1009.09 1010.22 1011.33 1012.42 1013.48 1014.52 1015.52 1016.49 1017.43 1018.33 1019.18 1019.99 1020.76 1021.47 1022.15 1022.78 1023.37 1023.93 1024.47 1024.99 1025.51 1026.01 1026.52 1027.02 1027.52 1028.01 1028.47 1028.91 1029.31 1029.67 1029.97
997.83 997.85 998.07 998.48 999.08 999.85 1000.75 1001.76 1002.85 1003.99 1005.16 1006.33 1007.50 1008.65 1009.78 1010.88 1011.95 1013.01 1014.04 1015.05 1016.03 1017.00 1017.93 1018.83 1019.69 1020.50 1021.27 1021.97 1022.63 1023.24 1023.81 1024.35 1024.86 1025.36 1025.85 1026.33 1026.82 1027.30 1027.77 1028.23 1028.66 1029.06 1029.41 1029.70
996.80 996.84 997.09 997.55 998.21 999.04 1000.01 1001.09 1002.25 1003.44 1004.65 1005.86 1007.04 1008.19 1009.31 1010.40 1011.46 1012.50 1013.52 1014.54 1015.54 1016.53 1017.50 1018.44 1019.34 1020.20 1021.00 1021.74 1022.42 1023.04 1023.62 1024.15 1024.64 1025.12 1025.59 1026.04 1026.50 1026.96 1027.42 1027.86 1028.28 1028.67 1029.02 1029.31
Thickness
5662 5662 5661 5660 5660 5660 5661 5665 5664 5670 5671 5676 5678 5678 5678 5679 5679 5678 5678 5678 5680 5680 5682 5682 5683 5683 5685 5685 5685 5686 5686 5686 5687 5688 5688 5687 5686 5685 5685 5685 5685 5683 5682 5681
5651 5654 5653 5653 5658 5658 5658 5660 5661 5662 5665 5675 5675 5673 5672 5672 5671 5671 5672 5673 5674 5676 5677 5678 5679 5679 5680 5681 5681 5682 5682 5683 5683 5683 5683 5682 5682 5681 5681 5681 5682 5681 5680 5678
5645 5647 5645 5647 5659 5658 5657 5659 5659 5656 5663 5666 5664 5663 5663 5664 5664 5665 5666 5667 5668 5670 5673 5674 5675 5676 5676 5677 5678 5678 5678 5679 5679 5678 5678 5678 5678 5677 5676 5677 5677 5677 5676 5675
5637 5636 5631 5657 5663 5659 5653 5653 5654 5654 5657 5656 5656 5658 5660 5660 5659 5660 5661 5662 5664 5666 5668 5670 5672 5672 5673 5674 5674 5675 5675 5675 5675 5674 5674 5674 5673 5673 5673 5674 5674 5673 5673 5672
5627 5628 5637 5647 5651 5649 5646 5647 5650 5648 5649 5650 5651 5652 5655 5656 5655 5655 5656 5658 5660 5661 5663 5665 5666 5667 5667 5669 5670 5672 5672 5672 5671 5671 5669 5669 5669 5670 5670 5670 5670 5670 5669 5668
5620 5617 5625 5641 5645 5645 5641 5638 5643 5642 5641 5641 5641 5640 5647 5649 5648 5649 5650 5653 5654 5656 5658 5658 5660 5661 5662 5663 5665 5667 5668 5668 5668 5667 5666 5666 5666 5667 5667 5666 5667 5666 5666 5665
5614 5615 5629 5635 5635 5634 5624 5632 5635 5636 5635 5634 5633 5636 5640 5642 5642 5642 5644 5646 5648 5650 5651 5652 5654 5655 5656 5659 5660 5663 5664 5664 5663 5663 5663 5663 5662 5662 5662 5662 5663 5663 5662 5661
5610 5608 5617 5626 5624 5622 5626 5630 5629 5629 5628 5628 5629 5631 5632 5633 5634 5635 5637 5639 5641 5642 5644 5646 5647 5648 5651 5653 5656 5657 5657 5657 5657 5657 5657 5658 5657 5657 5657 5657 5657 5657 5657 5657
5612 5615 5620 5620 5619 5620 5621 5620 5621 5621 5621 5621 5620 5621 5622 5624 5626 5628 5630 5632 5634 5635 5637 5640 5641 5643 5645 5648 5649 5650 5651 5652 5651 5651 5651 5652 5652 5652 5652 5652 5653 5654 5653 5653
5602 5608 5611 5611 5612 5612 5612 5612 5613 5613 5613 5613 5613 5614 5615 5617 5618 5620 5622 5624 5626 5628 5629 5632 5635 5636 5639 5642 5644 5645 5646 5646 5646 5646 5646 5646 5646 5648 5648 5647 5648 5649 5650 5649
5595 5600 5601 5603 5603 5604 5604 5605 5605 5605 5605 5605 5606 5607 5609 5610 5612 5613 5615 5617 5619 5620 5622 5625 5628 5631 5634 5636 5638 5640 5641 5641 5641 5641 5641 5641 5641 5642 5644 5645 5646 5646 5646 5647
5591 5596 5595 5597 5598 5597 5596 5595 5596 5596 5597 5598 5598 5599 5601 5603 5605 5606 5608 5610 5611 5614 5617 5620 5622 5626 5629 5632 5633 5635 5636 5636 5635 5635 5636 5635 5635 5635 5635 5637 5637 5638 5639 5641
5587 5589 5588 5589 5589 5589 5588 5589 5589 5589 5589 5590 5592 5592 5594 5595 5597 5598 5601 5603 5605 5608 5611 5614 5617 5620 5623 5626 5628 5629 5630 5631 5630 5630 5630 5630 5630 5630 5631 5630 5629 5631 5632 5632
5579 5579 5579 5581 5581 5582 5582 5583 5583 5583 5583 5583 5584 5585 5586 5588 5589 5591 5593 5595 5598 5601 5604 5608 5611 5614 5618 5620 5621 5623 5624 5624 5624 5624 5624 5625 5626 5627 5627 5627 5627 5628 5626 5626
5574 5573 5574 5576 5576 5576 5576 5576 5577 5577 5577 5577 5577 5578 5579 5581 5583 5584 5586 5588 5591 5594 5598 5601 5604 5608 5610 5612 5614 5616 5617 5618 5618 5618 5619 5619 5620 5621 5622 5622 5623 5623 5623 5621
5569 5569 5569 5569 5570 5571 5571 5571 5571 5572 5571 5571 5571 5572 5572 5574 5576 5577 5580 5582 5584 5587 5590 5594 5598 5601 5603 5605 5607 5609 5610 5610 5610 5612 5613 5613 5614 5615 5616 5616 5617 5617 5617 5617
5562 5563 5564 5564 5565 5566 5566 5566 5565 5566 5566 5566 5566 5566 5566 5567 5569 5571 5573 5576 5578 5581 5583 5587 5591 5594 5596 5598 5600 5602 5603 5603 5602 5604 5606 5607 5607 5608 5609 5610 5611 5612 5613 5612
5559 5559 5560 5560 5561 5561 5561 5561 5561 5561 5561 5561 5560 5560 5561 5562 5563 5565 5567 5570 5573 5576 5579 5582 5584 5587 5589 5590 5592 5594 5595 5596 5596 5597 5597 5598 5599 5600 5601 5603 5604 5605 5606 5604
5553 5553 5554 5554 5555 5555 5555 5555 5555 5555 5556 5555 5555 5556 5557 5557 5558 5559 5561 5564 5567 5571 5574 5575 5576 5579 5581 5583 5583 5585 5587 5587 5588 5590 5590 5589 5590 5592 5593 5594 5595 5597 5598 5598
5548 5548 5548 5548 5549 5549 5549 5549 5549 5550 5550 5551 5551 5551 5552 5554 5555 5556 5557 5560 5563 5565 5566 5568 5569 5571 5573 5575 5575 5577 5579 5580 5581 5582 5583 5583 5583 5584 5585 5586 5587 5588 5590 5591
5542 5542 5542 5543 5543 5543 5543 5543 5544 5544 5545 5546 5546 5546 5547 5548 5550 5552 5553 5555 5558 5558 5559 5560 5562 5564 5566 5566 5567 5570 5571 5572 5572 5573 5574 5575 5576 5576 5577 5577 5578 5579 5581 5582
5536 5536 5536 5537 5537 5538 5538 5538 5539 5539 5539 5540 5540 5541 5542 5543 5544 5546 5547 5548 5550 5550 5552 5554 5555 5556 5557 5558 5560 5562 5563 5564 5565 5565 5566 5567 5568 5568 5569 5569 5570 5571 5573 5574
5530 5530 5530 5530 5531 5531 5532 5532 5533 5533 5533 5533 5534 5535 5536 5537 5538 5539 5540 5541 5542 5543 5544 5546 5546 5547 5548 5550 5552 5554 5556 5557 5557 5558 5559 5559 5560 5560 5560 5561 5562 5563 5564 5566
5524 5524 5524 5524 5524 5525 5525 5526 5526 5526 5527 5527 5528 5529 5529 5530 5531 5531 5532 5532 5533 5534 5536 5536 5537 5538 5540 5543 5545 5546 5548 5549 5549 5550 5551 5551 5551 5551 5552 5552 5553 5554 5555 5557
5518 5518 5518 5519 5519 5519 5519 5519 5520 5520 5521 5522 5522 5522 5522 5522 5523 5524 5525 5525 5525 5526 5527 5528 5529 5531 5533 5535 5536 5537 5538 5540 5541 5542 5542 5542 5542 5542 5543 5543 5544 5545 5546 5548
5512 5511 5511 5512 5511 5511 5511 5512 5512 5513 5514 5514 5514 5514 5514 5515 5516 5518 5518 5518 5518 5518 5519 5520 5521 5522 5524 5526 5527 5528 5529 5530 5531 5532 5533 5533 5533 5533 5534 5534 5535 5537 5538 5539
5505 5504 5504 5505 5505 5504 5504 5504 5505 5505 5505 5505 5506 5506 5507 5508 5509 5509 5510 5511 5510 5510 5511 5511 5512 5514 5515 5517 5518 5520 5521 5522 5522 5523 5524 5525 5525 5525 5525 5526 5527 5528 5529 5530